Faith, SD

4:44 AM MST on December 11, 2017 (GMT -0700)
Faith

Weather History for KD07 - May, 2013

Change the Weather History Date:

Saturday, May 11, 2013

  Actual Average Record
Temperature  
Mean Temperature 47 °F 54 °F  
Max Temperature 60 °F 66 °F 82 °F (2004)
Min Temperature 33 °F 42 °F 28 °F (2008)
Degree Days  
Heating Degree Days 18 12  
Month to date heating degree days 175 142  
Since 1 July heating degree days 7416 7441  
Cooling Degree Days 0 0  
Month to date cooling degree days 0 0  
Year to date cooling degree days 0 1  
Moisture  
Dew Point 19 °F    
Average Humidity 40    
Maximum Humidity 61    
Minimum Humidity 19    
Precipitation  
Precipitation 0.00 in 0.10 in 0.91 in (2004)
Month to date precipitation 0.00 1.04  
Year to date precipitation 2.18 4.27  
Sea Level Pressure  
Sea Level Pressure 30.35 in    
Wind  
Wind Speed 9 mph (North)    
Max Wind Speed 16 mph    
Max Gust Speed 28 mph    
T = Trace of Precipitation, MM = Missing Value Source: NWS Daily Summary

Daily Weather History Graph

Daily Weather History Graph

Search for Another Location

Airport or City:

Trip Planner

Search our weather history database for the weather conditions in past years. The results will help you decide how hot, cold, wet, or windy it might be!

Date:

Astronomy

May. 11, 2013 Rise Set
Actual Time 5:23 AM MDT 8:06 PM MDT
Civil Twilight 4:49 AM MDT 8:40 PM MDT
Nautical Twilight 4:07 AM MDT 9:23 PM MDT
Astronomical Twilight 3:17 AM MDT 10:12 PM MDT
Moon 6:31 AM MDT 9:49 PM MDT
Length of Visible Light 15h 50m
Length of Day
14h 43m
Waxing Crescent, 3% of the Moon is Illuminated
May 11
Waxing Crescent
May 17
First Quarter
May 24
Full
May 31
Last Quarter
Jun 8
New

Hourly Weather History & Observations

Time (MDT) Temp. Windchill Dew Point Humidity Pressure Visibility Wind Dir Wind Speed Gust Speed Precip Events Conditions
12:56 AM 39.0 °F 32.3 °F 19.9 °F 46% 30.34 in - North 10.4 mph - N/A   Unknown
1:56 AM 39.0 °F 32.8 °F 19.0 °F 45% 30.34 in - NNW 9.2 mph - N/A   Unknown
2:56 AM 36.0 °F 28.5 °F 19.9 °F 52% 30.35 in - NW 10.4 mph - N/A   Unknown
3:56 AM 34.0 °F 25.0 °F 19.9 °F 56% 30.38 in - NW 12.7 mph - N/A   Unknown
4:56 AM 34.0 °F 25.5 °F 21.0 °F 59% 30.40 in - NNW 11.5 mph - N/A   Unknown
5:56 AM 34.0 °F 26.6 °F 21.9 °F 61% 30.42 in - North 9.2 mph - N/A   Unknown
6:56 AM 37.9 °F 34.4 °F 24.1 °F 57% 30.44 in - North 4.6 mph - N/A   Unknown
7:56 AM 41.0 °F 35.2 °F 23.0 °F 49% 30.44 in - NNE 9.2 mph - N/A   Unknown
8:56 AM 45.0 °F 40.1 °F 21.0 °F 39% 30.45 in - North 9.2 mph - N/A   Unknown
9:56 AM 48.0 °F - 19.9 °F 33% 30.44 in - Variable 5.8 mph 16.1 mph N/A   Unknown
10:56 AM 51.1 °F - 21.0 °F 31% 30.43 in - NNW 8.1 mph - N/A   Unknown
11:56 AM 52.0 °F - 19.9 °F 28% 30.41 in - NW 9.2 mph - N/A   Unknown
12:56 PM 54.0 °F - 19.0 °F 25% 30.39 in - WNW 4.6 mph - N/A   Unknown
1:56 PM 57.0 °F - 19.0 °F 23% 30.36 in - NNW 8.1 mph - N/A   Unknown
2:56 PM 57.9 °F - 18.0 °F 21% 30.33 in - Variable 6.9 mph - N/A   Unknown
3:56 PM 60.1 °F - 18.0 °F 20% 30.30 in - Variable 6.9 mph - N/A   Unknown
4:56 PM 59.0 °F - 17.1 °F 20% 30.29 in - Variable 3.5 mph - N/A   Unknown
5:56 PM 59.0 °F - 17.1 °F 20% 30.28 in - ENE 4.6 mph - N/A   Unknown
6:56 PM 57.0 °F - 18.0 °F 22% 30.25 in - ENE 9.2 mph - N/A   Unknown
7:56 PM 48.9 °F - 19.0 °F 31% 30.25 in - East 8.1 mph - N/A   Unknown
8:56 PM 48.0 °F - 15.1 °F 27% 30.24 in - ESE 6.9 mph - N/A   Unknown
9:56 PM 46.0 °F 40.2 °F 12.0 °F 25% 30.25 in - ESE 12.7 mph - N/A   Unknown
10:56 PM 43.0 °F 36.0 °F 15.1 °F 32% 30.25 in - ESE 13.8 mph - N/A   Unknown
11:56 PM 41.0 °F 33.5 °F 18.0 °F 40% 30.26 in - SE 13.8 mph - N/A   Unknown